Location: Unspecified
(52.4292°N, 19.3359°E)
Time: 22:22:29
(UTC+02:00)

A-11 Canister half - Pass Details

Date: 23 May 2024
Orbit: 1524 x 1683 km, 47.3° (Epoch: 19 June)

Event Time Altitude Azimuth Distance (km) Brightness Sun altitude
Rises 02:54:22 0° 281° (WNW) 4,766 11.4 -11.3°
Reaches altitude 10° 02:57:32 10° 276° (W) 3,801 10.8 -11.0°
Maximum altitude 03:06:38 48° 207° (SSW) 2,041 9.3 -10.2°
Drops below altitude 10° 03:16:00 10° 137° (SE) 3,907 11.0 -9.4°
Sets 03:19:19 0° 132° (SE) 4,907 11.6 -9.1°
